Track IRIDIUM 106 now! 10-day predictions IRIDIUM 106 is classified as:
1 41917U 17003A 23268.08012288 .00000356 00000-0 12015-3 0 9999 2 41917 86.3999 144.8449 0001905 79.3115 280.8295 14.34216914350437